TimeEST,TemperatureF,Dew PointF,Humidity,Sea Level PressureIn,VisibilityMPH,Wind Direction,Wind SpeedMPH,Gust SpeedMPH,PrecipitationIn,Events,Conditions,WindDirDegrees,DateUTC
12:18 AM,44.6,28.4,53,30.25,10.0,North,9.2,17.3,N/A,,Clear,360,2012-12-06 05:18:00
12:39 AM,42.8,28.4,57,30.25,10.0,NNE,9.2,-,N/A,,Clear,20,2012-12-06 05:39:00
12:59 AM,42.8,28.4,57,30.25,10.0,North,9.2,-,N/A,,Clear,10,2012-12-06 05:59:00
1:19 AM,42.8,28.4,57,30.26,10.0,NNE,9.2,16.1,N/A,,Clear,20,2012-12-06 06:19:00
1:44 AM,41.0,26.6,57,30.27,10.0,NNE,8.1,-,N/A,,Clear,20,2012-12-06 06:44:00
2:04 AM,41.0,24.8,53,30.28,10.0,NNE,10.4,-,N/A,,Clear,30,2012-12-06 07:04:00
2:19 AM,39.2,24.8,56,30.29,10.0,NNE,8.1,17.3,N/A,,Clear,20,2012-12-06 07:19:00
2:39 AM,39.2,23.0,52,30.29,10.0,North,10.4,-,N/A,,Clear,10,2012-12-06 07:39:00
3:00 AM,39.2,23.0,52,30.29,10.0,NNE,9.2,17.3,N/A,,Clear,20,2012-12-06 08:00:00
3:19 AM,39.2,23.0,52,30.30,10.0,NNE,8.1,18.4,N/A,,Clear,20,2012-12-06 08:19:00
3:39 AM,39.2,23.0,52,30.30,10.0,NNE,10.4,-,N/A,,Clear,20,2012-12-06 08:39:00
4:20 AM,37.4,21.2,52,30.29,10.0,NNE,8.1,-,N/A,,Clear,30,2012-12-06 09:20:00
4:40 AM,37.4,23.0,56,30.30,10.0,NNE,9.2,-,N/A,,Clear,20,2012-12-06 09:40:00
5:00 AM,37.4,21.2,52,30.30,10.0,NNE,8.1,-,N/A,,Clear,20,2012-12-06 10:00:00
5:20 AM,37.4,21.2,52,30.30,10.0,NE,6.9,-,N/A,,Clear,40,2012-12-06 10:20:00
5:46 AM,37.4,21.2,52,30.32,10.0,NNE,9.2,-,N/A,,Clear,30,2012-12-06 10:46:00
6:01 AM,37.4,21.2,52,30.31,10.0,NNE,9.2,-,N/A,,Clear,30,2012-12-06 11:01:00
6:20 AM,35.6,21.2,56,30.32,10.0,NE,6.9,-,N/A,,Clear,40,2012-12-06 11:20:00
6:40 AM,35.6,21.2,56,30.33,10.0,NNE,6.9,-,N/A,,Clear,30,2012-12-06 11:40:00
7:00 AM,35.6,21.2,56,30.34,10.0,NNE,5.8,-,N/A,,Clear,30,2012-12-06 12:00:00
7:21 AM,35.6,21.2,56,30.35,10.0,NNE,6.9,-,N/A,,Clear,30,2012-12-06 12:21:00
8:00 AM,35.6,23.0,60,30.36,10.0,NNE,4.6,-,N/A,,Clear,30,2012-12-06 13:00:00
8:20 AM,37.4,24.8,60,30.36,10.0,North,8.1,-,N/A,,Clear,10,2012-12-06 13:20:00
8:37 AM,37.4,24.8,60,30.36,10.0,NNE,5.8,-,N/A,,Clear,20,2012-12-06 13:37:00
8:55 AM,39.2,24.8,56,30.36,10.0,NE,9.2,-,N/A,,Clear,40,2012-12-06 13:55:00
9:15 AM,39.2,24.8,56,30.37,10.0,NE,6.9,-,N/A,,Clear,40,2012-12-06 14:15:00
9:36 AM,39.2,24.8,56,30.37,10.0,NE,9.2,-,N/A,,Clear,40,2012-12-06 14:36:00
9:55 AM,41.0,24.8,53,30.38,10.0,NE,9.2,16.1,N/A,,Clear,50,2012-12-06 14:55:00
10:15 AM,41.0,24.8,53,30.37,10.0,NE,9.2,-,N/A,,Clear,40,2012-12-06 15:15:00
10:35 AM,41.0,24.8,53,30.37,10.0,East,6.9,-,N/A,,Clear,80,2012-12-06 15:35:00
10:55 AM,42.8,26.6,53,30.37,10.0,ENE,11.5,-,N/A,,Clear,60,2012-12-06 15:55:00
11:15 AM,42.8,26.6,53,30.35,10.0,ENE,10.4,-,N/A,,Clear,70,2012-12-06 16:15:00
11:55 AM,42.8,26.6,53,30.34,10.0,NE,4.6,-,N/A,,Clear,50,2012-12-06 16:55:00
12:15 PM,44.6,28.4,53,30.34,10.0,East,8.1,-,N/A,,Clear,80,2012-12-06 17:15:00
12:35 PM,44.6,28.4,53,30.33,10.0,NE,4.6,-,N/A,,Clear,50,2012-12-06 17:35:00
12:55 PM,44.6,28.4,53,30.32,10.0,East,8.1,-,N/A,,Clear,80,2012-12-06 17:55:00
1:15 PM,44.6,28.4,53,30.32,10.0,East,4.6,-,N/A,,Clear,90,2012-12-06 18:15:00
1:36 PM,44.6,28.4,53,30.31,10.0,SE,5.8,-,N/A,,Clear,130,2012-12-06 18:36:00
1:55 PM,44.6,28.4,53,30.31,10.0,NE,5.8,-,N/A,,Clear,50,2012-12-06 18:55:00
2:15 PM,44.6,30.2,57,30.30,10.0,ESE,3.5,-,N/A,,Clear,110,2012-12-06 19:15:00
2:55 PM,44.6,30.2,57,30.30,10.0,ESE,4.6,-,N/A,,Clear,110,2012-12-06 19:55:00
3:16 PM,44.6,30.2,57,30.30,10.0,ESE,4.6,-,N/A,,Clear,120,2012-12-06 20:16:00
3:35 PM,42.8,30.2,61,30.31,10.0,Calm,Calm,-,N/A,,Clear,0,2012-12-06 20:35:00
3:55 PM,42.8,30.2,61,30.31,10.0,SE,4.6,-,N/A,,Clear,140,2012-12-06 20:55:00
4:15 PM,42.8,30.2,61,30.30,10.0,ESE,3.5,-,N/A,,Clear,120,2012-12-06 21:15:00
4:35 PM,41.0,30.2,65,30.31,10.0,SE,3.5,-,N/A,,Clear,140,2012-12-06 21:35:00
4:55 PM,39.2,30.2,70,30.31,10.0,SE,3.5,-,N/A,,Clear,130,2012-12-06 21:55:00
5:15 PM,37.4,30.2,75,30.31,10.0,Calm,Calm,-,N/A,,Clear,0,2012-12-06 22:15:00
5:35 PM,35.6,30.2,81,30.30,10.0,Calm,Calm,-,N/A,,Clear,0,2012-12-06 22:35:00
5:55 PM,35.6,30.2,81,30.31,10.0,Calm,Calm,-,N/A,,Clear,0,2012-12-06 22:55:00
6:15 PM,35.6,30.2,81,30.30,10.0,Calm,Calm,-,N/A,,Clear,0,2012-12-06 23:15:00
6:35 PM,33.8,30.2,87,30.31,10.0,Calm,Calm,-,N/A,,Clear,0,2012-12-06 23:35:00
7:16 PM,33.8,30.2,87,30.31,10.0,Calm,Calm,-,N/A,,Clear,0,2012-12-07 00:16:00
7:35 PM,32.0,28.4,87,30.30,10.0,Calm,Calm,-,N/A,,Clear,0,2012-12-07 00:35:00
7:55 PM,32.0,28.4,87,30.31,10.0,Calm,Calm,-,N/A,,Clear,0,2012-12-07 00:55:00
8:15 PM,32.0,28.4,87,30.30,10.0,Calm,Calm,-,N/A,,Clear,0,2012-12-07 01:15:00
8:35 PM,30.2,28.4,93,30.30,10.0,Calm,Calm,-,N/A,,Clear,0,2012-12-07 01:35:00
8:55 PM,30.2,28.4,93,30.30,10.0,Calm,Calm,-,N/A,,Clear,0,2012-12-07 01:55:00
9:35 PM,30.2,28.4,93,30.30,10.0,Calm,Calm,-,N/A,,Clear,0,2012-12-07 02:35:00
9:55 PM,30.2,28.4,93,30.29,10.0,Calm,Calm,-,N/A,,Clear,0,2012-12-07 02:55:00
10:15 PM,30.2,28.4,93,30.29,10.0,NE,3.5,-,N/A,,Clear,50,2012-12-07 03:15:00
10:36 PM,30.2,28.4,93,30.28,10.0,Calm,Calm,-,N/A,,Clear,0,2012-12-07 03:36:00
10:56 PM,30.2,28.4,93,30.28,10.0,NE,3.5,-,N/A,,Clear,50,2012-12-07 03:56:00
11:15 PM,30.2,28.4,93,30.27,10.0,Calm,Calm,-,N/A,,Clear,0,2012-12-07 04:15:00
11:35 PM,30.2,26.6,86,30.28,10.0,Calm,Calm,-,N/A,,Clear,0,2012-12-07 04:35:00
11:55 PM,30.2,28.4,93,30.27,10.0,Calm,Calm,-,N/A,,Clear,0,2012-12-07 04:55:00